Location: B�hl
(48.6968°N, 8.1352°E)
Time: 23:32:25
(UTC+00:00)

Cosmos 2322 - Pass Details

Date: 08 March 2021
Orbit: 842 x 853 km, 71.0° (Epoch: 20 April)

Event Time Altitude Azimuth Distance (km) Brightness Sun altitude
Rises 18:37:55 0° 209° (SSW) 3,409 7.1 -13.3°
Reaches altitude 10° 18:40:22 10° 210° (SSW) 2,477 6.4 -13.7°
Maximum altitude 18:46:04 83° 298° (WNW) 866 3.8 -14.6°
Drops below altitude 10° 18:51:49 10° 27° (NNE) 2,490 6.0 -15.5°
Sets 18:54:17 0° 28° (NNE) 3,428 6.7 -15.9°
